Tracking 18840 objects as of 19-November-2017
HD Live streaming from Space Station
objects crossing your sky now

FLOCK 2K 44

Track FLOCK 2K 44 now!
10-day predictions
FLOCK 2K 44 is classified as:


NORAD ID: 42873
Int'l Code: 2017-042BA
Perigee: 459.6 km
Apogee: 478.2 km
Inclination: 97.0 °
Period: 93.8 minutes
Semi major axis: 6839 km
RCS: Unknown
Launch date: July 14, 2017
Source: United States (US)
Launch site: TYURATAM MISSILE AND SPACE COMPLEX (TTMTR)
aabbcc
Your satellite tracking list
Your tracking list is empty




NASA's NSSDC Master Catalog

Two Line Element Set (TLE):
1 42873U 17042BA  17322.70291809  .00007567  00000-0  22650-3 0  9992
2 42873  96.9950 224.9956 0013585 133.9535 226.2833 15.34707286 19337
Source of the keplerian elements: AFSPC